Showing default

COSMOS 87, 1585

Orbit data source: Space-Track

COSMOS 87, 1585 is a payload satellite owned by OKB-10 (CIS) in LEO that was launched on Sat, 18 Sep 1965 UTC via a KOSMOS 65S3 launch vehicle from the Tyuratam Missile And Space Complex (TTMTR). Payload-class satellites include a variety of spacecraft equipped with specific instruments for various scientific and technological missions. These include communications satellites like Starlink; space stations such as the ISS; scientific satellites like the Hubble; Earth observation satellites from companies like Planet Labs, Umbra, and HawkEye 360; GPS; miniature CubeSats for education and research; and military/defense satellites.

Loading next visibility...
Identifier
1585, 1965-073B
Orbit
LEO
Country
Flag of CISCIS
Related business
Manufacturer
OKB-10
Mission
Spacecraft
Bus & Motor
STRELA-1 11F610, Unknown motor
Mass
50 kg wet, 50 kg dry
Launch date (UTC)
1965-09-18 (61 years ago)
Launch vehicle
KOSMOS 65S3
Launch site
Tyuratam Missile And Space Complex (TTMTR)
Object type
Payload
Rocket body
Debris
Shape & HBR
Unknown
Radar Cross Section
Medium (>0.1 m² and <1 m²)

Expand to show TLE details & history
Last TLE update: 9 hours ago

TLE from 9 hours ago
0 COSMOS 87
1 01585U 65073B   26132.93514721 -.00000096  00000-0 -76077-5 0  9995
2 01585  56.0638  18.5074 0203385 340.3260 127.6148 12.47463020761353
Epoch: 2026-05-12T22:26Z
TLE epoch observation values (Epoch: 2026-05-12T22:26:36.718Z)
Latitude
51.46083°
Longitude
-66.05881°
Altitude
1,581.171 km
Speed
7.038 km/s
True Right ascension
09h 25m 11s
True Declination
51° 18' 38"
Sunlit
Object was in daylight at epoch
Visualization orbit readout
Latitude
Unknown
Longitude
Unknown
Altitude
Unknown
Speed
Unknown
Apparent Right ascension
Unknown
Apparent Declination
Unknown
Sunlit
N/A
Visualization observer readout
Local Sidereal Time
15:26:32
Azimuth
Unknown
Elevation
Unknown
Doppler factor
Unknown
Orbital elements
Apogee altitude
1,634.667 km
Perigee altitude
1,315.227 km
Semi-major axis
7,853.084 km
Eccentricity
0.02034
Inclination
56.0638°
RAAN
18.5074°
Arg. of periapsis
340.326°
True anomaly
129.43243°
Mean anomaly
127.6148°
Eccentric anomaly
128.52645°
Mean motion
3.11877 °/min
Orbital period
115.43 mins
BSTAR
-0.0000076077
Loading maneuver chart data...
Computing Atmospheric mass density...
Loading historical data...
Loading historical data...
Loading historical data...
Loading historical data...
Loading historical data...
Loading historical data...
Loading historical data...

Documentation

Showing up to 5 results
|